Wind_Speed
11 12 12 12 11 13 10 3 2 1 1 2 2 2 3 2 1 2 1 2 2 2 3 4 5 4 4 5 8 10 11 12 13 13 13 12 11 11 11 10 8 7 6 7 9 11 11 11 11
11 11 10 9 9 11 4 2 3 4 3 2 2 2 2 3 3 4 4 3 3 3 3 4 4 4 5 7 9 11 13 13 13 13 12 12 12 12 11 10 9 8 7 8 12 14 13 12 12
11 11 8 4 3 6 5 6 7 6 5 6 6 5 4 5 6 6 6 6 5 5 5 5 6 6 7 8 9 11 12 13 13 13 12 11 12 12 12 11 9 9 10 12 16 17 14 13 12
10 9 3 4 10 4 5 8 10 7 6 8 9 6 7 8 8 8 7 7 6 6 6 6 7 8 9 9 9 10 12 13 13 13 13 13 13 14 13 12 11 12 14 16 17 16 14 13 12
9 7 3 8 15 10 3 9 9 9 9 9 11 8 8 8 9 9 8 7 8 8 7 7 8 9 10 11 10 12 13 14 15 15 16 16 16 16 16 15 16 18 19 19 18 16 15 14 13
9 9 5 3 15 15 4 10 10 5 9 10 13 9 10 8 8 8 7 6 6 6 7 7 8 10 11 13 14 15 17 18 18 19 20 20 19 19 19 20 21 22 22 21 19 17 17 15 15
13 11 8 2 13 19 6 11 15 7 9 8 8 11 11 10 9 7 6 5 7 8 9 11 13 14 16 17 18 19 20 21 21 22 23 23 21 21 21 23 24 25 24 24 22 21 21 20 19
17 14 10 2 8 17 17 11 15 16 18 12 9 14 11 11 10 9 7 7 9 12 14 17 19 20 21 22 23 24 24 25 26 26 26 26 25 24 25 26 28 28 28 28 27 25 25 25 24
18 17 10 3 12 16 17 14 15 14 17 17 13 16 13 12 13 13 12 13 15 18 19 21 22 22 23 24 26 28 29 28 28 29 31 31 31 30 30 31 32 32 33 32 31 30 29 28 28
19 18 10 9 16 15 14 10 14 14 14 20 20 16 15 15 15 17 18 19 21 23 24 25 26 27 28 28 28 30 31 30 31 31 33 34 34 33 34 34 36 36 36 35 35 35 34 32 32
22 20 18 16 21 23 20 15 14 12 14 23 23 20 16 18 19 19 20 21 23 26 28 30 31 31 32 31 31 31 32 31 31 33 34 34 34 34 35 36 36 37 37 37 38 38 37 36 36
25 24 25 26 26 26 26 22 17 12 16 27 28 24 19 22 24 24 23 24 26 28 30 32 35 36 36 35 34 33 33 33 33 34 34 34 33 33 33 34 35 36 37 37 38 39 39 38 39
27 26 27 28 28 27 26 24 20 15 17 26 28 26 23 25 28 29 29 29 30 32 33 34 36 38 39 37 36 36 36 37 37 36 35 35 33 32 31 31 32 31 31 32 31 30 27 26 25
25 27 30 29 27 23 23 23 20 18 18 29 29 28 28 30 32 31 31 33 35 36 37 37 38 40 38 37 38 39 38 39 39 38 37 35 34 33 33 31 28 27 27 26 24 22 22 22 22
24 26 28 27 25 21 20 21 20 19 19 30 34 34 33 32 31 33 35 36 38 39 39 40 41 40 37 38 40 41 39 38 37 37 35 32 31 30 30 28 25 24 24 23 22 21 21 22 23
21 22 23 23 21 19 23 25 20 17 19 29 34 35 35 32 33 36 39 40 42 41 40 41 42 38 37 40 41 41 39 37 35 34 32 30 28 27 27 26 25 24 23 23 22 22 22 22 22
11 17 17 16 16 21 26 24 18 21 26 28 31 35 38 37 38 40 42 42 40 38 41 40 40 38 38 39 41 41 38 36 34 31 29 27 26 25 26 27 26 25 24 23 22 19 19 19 21
8 9 12 10 13 23 24 19 20 29 32 33 34 38 42 42 43 45 45 40 40 40 40 39 39 38 39 40 42 40 36 34 32 29 27 25 24 23 23 24 23 22 21 20 17 16 17 19 21
13 11 10 10 17 24 26 23 22 30 34 33 37 43 46 46 48 50 46 39 37 39 40 41 39 38 40 41 41 37 34 32 29 27 25 24 23 22 21 20 17 17 17 16 16 16 17 19 21
5 10 12 15 20 24 27 30 28 30 38 38 38 39 42 45 47 46 37 33 33 36 39 41 41 40 41 41 39 36 35 32 29 26 25 24 22 21 20 18 17 17 17 16 16 16 17 20 22
7 11 15 17 20 23 24 23 19 18 26 32 32 36 38 35 39 36 33 32 36 38 39 42 43 43 42 40 39 38 37 35 32 29 27 25 24 22 20 20 20 19 19 19 18 17 18 20 23
9 14 17 18 19 17 14 16 14 16 24 31 34 34 28 28 31 21 22 29 36 40 41 43 43 42 39 38 37 35 33 31 30 28 27 26 24 22 22 22 22 22 23 23 22 20 19 20 23
12 13 12 11 11 10 9 11 13 17 23 28 32 34 34 34 32 31 29 32 36 39 40 42 36 33 33 32 33 30 28 27 27 27 26 25 24 24 24 25 26 27 28 27 25 24 22 22 23
11 10 7 10 15 20 18 11 17 20 24 30 34 35 37 35 33 31 29 31 35 37 38 36 31 30 32 32 33 31 29 27 27 29 29 28 28 27 26 27 29 31 33 33 30 27 25 24 24
8 8 8 12 19 22 17 6 16 18 21 26 30 33 34 33 31 30 30 32 35 37 37 37 36 35 35 36 37 37 34 31 30 31 31 32 33 33 32 31 32 33 34 34 32 30 28 27 26
10 8 10 14 15 19 21 15 21 25 24 26 29 33 36 38 37 36 36 38 40 41 42 42 42 42 42 42 42 42 41 39 38 37 36 36 37 38 38 37 37 36 35 34 34 32 30 29 27
12 10 11 14 12 11 17 23 31 29 25 28 34 38 40 42 44 44 44 44 45 47 48 49 50 50 50 50 50 49 49 48 47 47 46 44 43 42 42 40 38 38 38 37 35 34 33 30 28
18 17 16 15 14 15 17 30 33 29 29 35 39 39 41 44 48 50 50 51 51 52 53 54 56 56 56 57 57 57 57 56 55 54 54 54 53 50 47 44 40 39 39 39 38 36 34 31 29
15 17 18 18 17 19 19 30 32 35 36 39 42 43 45 49 51 53 54 55 56 56 57 58 59 60 61 61 61 61 61 62 62 62 61 61 60 58 54 50 48 46 43 41 40 37 35 33 31
12 20 22 23 22 22 22 31 34 36 37 40 44 47 51 53 54 55 56 57 58 59 59 60 61 62 63 64 64 64 63 63 64 65 66 66 65 63 59 54 50 51 49 44 41 38 36 33 31
Wind_Direction
110 107 103 106 101 88 98 173 212 300 18 101 114 151 140 124 54 169 201 209 228 252 250 259 260 268 284 295 301 305 309 315 319 320 321 325 332 341 341 343 347 348 355 4 359 350 342 340 339
119 117 115 115 110 108 122 277 354 342 330 302 245 239 188 190 181 186 213 208 213 237 259 275 264 266 279 289 298 306 312 317 318 317 316 320 324 330 331 332 339 338 338 343 343 340 331 324 322
136 134 119 107 81 149 126 319 344 340 332 319 291 283 258 243 230 227 240 230 232 240 252 265 271 275 284 293 300 307 313 318 319 315 312 317 320 321 320 318 327 334 331 332 335 335 331 321 311
158 152 126 11 333 326 56 325 321 318 325 328 304 297 287 278 264 262 263 254 259 263 268 275 280 286 290 295 300 305 310 317 320 316 308 310 312 311 310 308 315 325 329 331 335 339 338 336 322
188 180 145 6 314 305 324 308 310 312 314 315 307 319 301 298 287 283 278 272 277 279 281 288 295 297 297 299 303 306 310 313 314 312 308 306 303 301 302 302 307 316 323 327 332 337 338 339 338
220 202 166 351 304 286 266 295 303 276 304 303 299 309 307 304 296 290 283 285 290 294 298 309 314 313 310 307 306 307 310 311 309 307 307 306 304 299 296 298 302 308 313 317 321 325 331 332 331
246 233 209 170 303 306 295 289 293 277 250 228 285 312 310 305 306 306 307 311 313 313 313 314 312 310 308 306 303 301 299 299 298 297 297 298 299 297 293 293 295 298 301 304 307 312 315 318 317
247 248 238 200 287 287 279 260 273 276 275 280 310 296 306 303 298 298 298 309 312 312 311 311 309 307 304 301 299 297 296 295 293 290 289 287 285 285 285 286 288 289 291 294 298 302 305 306 306
247 247 243 294 279 260 255 258 265 264 287 296 281 287 298 293 293 294 295 304 310 313 316 317 316 313 310 306 302 298 297 296 293 289 286 283 281 280 280 282 283 285 288 289 289 291 291 293 295
248 245 223 264 255 240 242 255 283 298 286 277 272 280 284 287 292 295 297 304 309 313 317 318 318 316 313 307 302 297 294 293 292 289 285 282 281 280 279 280 281 283 285 285 285 287 287 286 285
251 242 220 234 250 237 238 260 272 275 283 276 270 270 284 294 299 300 299 302 308 311 315 318 318 318 316 309 303 300 297 294 293 292 289 285 282 280 278 278 278 280 282 283 284 286 285 284 281
252 246 234 234 245 249 250 257 260 254 265 269 270 276 290 299 301 301 299 299 302 306 310 314 316 318 317 313 307 303 299 296 295 294 294 293 290 284 280 279 278 279 280 281 281 280 280 281 282
252 248 244 244 251 256 257 258 256 250 257 269 271 274 281 291 295 296 297 299 301 303 307 311 312 314 315 312 308 306 303 301 298 296 295 296 294 290 286 282 281 282 283 284 285 288 291 292 295
261 252 246 248 254 257 258 257 254 249 255 270 270 275 281 287 289 289 293 297 299 301 303 306 307 310 312 309 307 307 304 300 297 294 294 294 293 294 295 293 289 289 288 289 292 292 287 286 286
264 261 258 254 256 261 263 259 252 247 246 265 272 276 279 281 280 286 292 294 295 296 299 301 302 307 307 305 305 306 304 300 297 295 293 291 289 291 292 293 291 288 286 287 289 286 284 283 283
269 268 263 253 255 260 257 255 251 251 252 256 265 273 278 280 281 287 289 291 290 291 295 297 298 301 302 304 304 304 302 298 295 294 292 290 288 289 289 288 287 288 288 289 290 290 290 290 288
308 298 287 265 252 246 251 261 263 256 245 242 256 268 275 279 282 285 286 286 284 285 290 291 293 296 300 302 302 301 297 294 294 294 293 291 288 286 284 283 284 285 284 286 289 293 298 302 301
265 276 286 278 243 241 251 255 248 247 243 245 253 264 272 279 281 280 277 271 277 282 284 286 287 293 299 301 301 298 292 290 290 291 291 290 289 287 284 283 282 280 281 282 285 293 301 308 309
231 208 212 222 230 246 254 250 255 268 264 262 266 268 273 276 275 274 268 264 273 276 280 280 285 291 296 299 300 295 288 287 287 286 285 287 288 286 285 281 273 272 273 274 283 294 303 311 318
259 250 242 240 245 252 261 268 264 261 273 273 271 270 270 271 271 270 263 264 271 270 274 280 285 290 294 297 296 292 287 286 286 282 280 279 278 278 276 268 264 264 264 270 281 294 304 314 321
270 262 244 243 250 256 267 282 289 276 273 281 277 268 261 265 266 252 247 265 270 275 276 282 286 288 290 292 293 291 290 289 288 284 281 278 276 276 272 265 264 264 262 268 277 290 304 312 318
277 275 268 265 273 274 272 277 278 266 259 269 276 278 272 276 278 251 262 278 282 286 288 290 287 283 285 290 294 293 290 289 287 284 280 273 267 271 271 269 265 266 269 273 277 281 293 306 314
292 282 283 286 286 267 250 265 260 245 254 272 283 290 296 298 291 297 299 292 290 292 291 292 287 279 280 286 293 297 298 297 293 287 282 278 274 276 279 278 273 271 274 276 279 280 285 296 306
309 306 310 311 290 274 263 219 245 261 274 282 288 292 295 297 301 304 300 294 293 294 292 297 297 289 284 288 292 293 295 294 291 288 284 282 281 280 280 282 281 278 276 277 277 278 281 287 296
330 338 335 319 318 325 334 290 263 288 291 289 292 296 300 302 305 307 302 296 294 294 292 292 295 292 288 287 288 288 287 286 283 282 283 284 284 283 280 281 283 282 280 278 277 276 280 284 289
350 358 345 318 311 320 322 293 280 290 290 294 298 301 303 305 305 305 302 296 293 292 290 289 289 288 286 284 284 283 282 280 279 278 278 278 279 281 281 283 284 283 279 277 277 277 280 283 286
343 336 314 307 313 308 297 289 291 282 281 293 298 302 303 302 301 300 297 294 291 289 287 286 286 286 285 284 283 281 280 278 277 276 275 273 274 276 278 280 281 280 276 273 274 275 276 278 282
328 330 328 327 316 303 303 302 301 303 305 303 301 301 300 297 296 295 294 292 290 287 285 283 282 281 281 280 279 279 278 278 276 275 275 275 275 275 274 273 272 275 274 269 267 269 270 271 276
304 325 323 318 312 300 300 295 293 296 297 300 298 295 294 294 294 293 292 291 289 287 285 282 280 279 278 277 276 274 274 274 274 274 274 275 276 276 275 273 268 268 271 267 263 262 263 266 272
305 323 324 319 315 312 306 291 297 296 298 299 298 295 294 294 294 293 292 291 290 288 286 283 280 279 278 276 274 273 271 271 272 272 272 272 272 273 272 272 269 265 267 267 261 257 258 262 268
Height
5924 5925 5925 5925 5925 5923 5924 5926 5924 5923 5922 5921 5920 5918 5917 5918 5919 5921 5919 5918 5918 5918 5918 5918 5918 5917 5918 5917 5918 5918 5917 5916 5915 5914 5913 5912 5912 5911 5909 5908 5906 5905 5904 5903 5903 5903 5902 5901 5900
5925 5926 5927 5926 5924 5922 5925 5925 5924 5924 5923 5921 5919 5919 5918 5917 5918 5918 5917 5917 5917 5917 5918 5918 5917 5917 5917 5916 5916 5916 5916 5915 5914 5914 5913 5913 5912 5911 5910 5908 5907 5905 5904 5903 5903 5903 5902 5901 5900
5926 5927 5927 5927 5925 5922 5922 5925 5925 5924 5922 5921 5919 5919 5918 5917 5917 5916 5916 5917 5916 5916 5916 5916 5916 5916 5916 5915 5915 5915 5915 5914 5914 5913 5913 5912 5911 5910 5909 5908 5907 5906 5905 5904 5902 5902 5901 5900 5899
5927 5928 5928 5928 5926 5921 5918 5924 5925 5923 5921 5921 5919 5919 5918 5917 5917 5916 5916 5916 5916 5916 5915 5915 5915 5915 5914 5914 5914 5914 5914 5913 5913 5912 5912 5911 5910 5909 5908 5907 5906 5906 5905 5904 5902 5901 5899 5898 5897
5927 5928 5929 5928 5927 5924 5922 5925 5925 5923 5921 5921 5918 5918 5917 5917 5917 5916 5915 5916 5916 5916 5915 5914 5914 5914 5913 5913 5912 5912 5912 5912 5911 5911 5910 5909 5909 5908 5907 5906 5905 5904 5903 5903 5901 5900 5899 5898 5897
5926 5928 5928 5930 5927 5925 5920 5924 5924 5922 5920 5919 5916 5917 5916 5916 5916 5915 5915 5915 5915 5915 5914 5914 5913 5913 5912 5912 5911 5910 5910 5910 5909 5909 5908 5907 5906 5905 5905 5904 5903 5902 5901 5900 5899 5899 5898 5897 5896
5924 5926 5926 5928 5931 5925 5921 5923 5922 5918 5915 5915 5914 5916 5915 5915 5915 5915 5914 5914 5914 5914 5914 5913 5913 5912 5911 5910 5909 5908 5907 5906 5906 5905 5904 5903 5903 5902 5901 5900 5899 5898 5898 5897 5897 5896 5895 5895 5895
5921 5923 5925 5927 5931 5928 5924 5922 5920 5918 5915 5911 5912 5913 5914 5915 5915 5914 5914 5914 5914 5913 5912 5912 5911 5910 5908 5907 5906 5905 5904 5903 5902 5901 5900 5899 5899 5898 5897 5896 5895 5895 5894 5893 5893 5892 5892 5891 5891
5918 5921 5923 5926 5927 5924 5921 5919 5917 5916 5914 5912 5911 5910 5913 5913 5913 5912 5912 5912 5911 5910 5909 5908 5907 5906 5904 5903 5901 5900 5898 5897 5896 5895 5895 5894 5894 5893 5893 5892 5891 5890 5889 5888 5888 5888 5887 5887 5886
5914 5916 5920 5923 5921 5918 5916 5918 5917 5916 5916 5912 5909 5906 5909 5910 5910 5909 5909 5908 5907 5906 5905 5904 5903 5901 5900 5898 5897 5894 5892 5891 5889 5889 5888 5887 5887 5887 5887 5887 5885 5884 5884 5883 5883 5882 5881 5880 5880
5909 5911 5914 5915 5915 5914 5915 5917 5918 5917 5916 5908 5906 5904 5904 5906 5906 5905 5905 5904 5903 5902 5900 5899 5898 5897 5894 5892 5890 5888 5886 5885 5883 5882 5881 5880 5879 5880 5879 5879 5879 5878 5877 5876 5876 5875 5874 5873 5872
5904 5906 5907 5907 5908 5910 5911 5912 5914 5914 5914 5904 5902 5899 5896 5900 5902 5900 5900 5900 5900 5898 5897 5896 5893 5891 5889 5886 5883 5881 5880 5878 5876 5875 5873 5872 5872 5871 5871 5871 5871 5870 5869 5869 5869 5867 5866 5865 5864
5898 5900 5901 5901 5903 5904 5906 5907 5909 5910 5910 5901 5896 5897 5895 5896 5897 5895 5894 5894 5894 5893 5892 5891 5889 5886 5884 5881 5878 5875 5873 5870 5868 5867 5866 5865 5865 5864 5864 5863 5862 5861 5860 5860 5860 5859 5859 5858 5857
5892 5893 5894 5896 5898 5899 5901 5902 5904 5906 5907 5900 5894 5893 5894 5894 5892 5889 5888 5888 5887 5886 5885 5884 5882 5881 5878 5875 5872 5869 5867 5864 5862 5860 5859 5859 5858 5858 5857 5856 5855 5854 5853 5853 5854 5854 5853 5851 5850
5886 5887 5889 5891 5893 5895 5897 5898 5900 5902 5904 5898 5891 5890 5890 5889 5886 5883 5883 5882 5880 5879 5877 5876 5874 5874 5872 5869 5866 5863 5860 5858 5856 5854 5853 5853 5852 5851 5850 5849 5849 5848 5848 5847 5848 5848 5846 5845 5844
5882 5883 5883 5887 5889 5892 5894 5893 5896 5898 5899 5896 5889 5886 5884 5884 5881 5878 5876 5874 5870 5868 5868 5867 5866 5866 5865 5862 5859 5856 5854 5852 5850 5848 5847 5846 5845 5845 5844 5844 5843 5843 5842 5842 5842 5841 5840 5839 5838
5879 5879 5880 5883 5886 5889 5888 5888 5891 5891 5890 5889 5886 5882 5878 5878 5876 5872 5868 5862 5855 5853 5854 5859 5858 5858 5856 5855 5852 5849 5847 5845 5843 5842 5841 5840 5839 5839 5838 5838 5838 5838 5837 5836 5836 5835 5834 5833 5831
5879 5882 5883 5883 5885 5882 5881 5883 5885 5880 5878 5880 5880 5876 5872 5871 5869 5862 5857 5854 5849 5849 5848 5850 5850 5850 5848 5847 5845 5843 5841 5839 5837 5836 5835 5835 5834 5833 5833 5832 5832 5832 5831 5831 5830 5830 5829 5827 5825
5874 5876 5877 5880 5879 5876 5875 5876 5877 5873 5870 5872 5873 5870 5866 5863 5858 5851 5844 5840 5844 5845 5843 5843 5842 5842 5842 5840 5838 5836 5835 5833 5831 5831 5830 5829 5828 5828 5828 5828 5828 5827 5826 5826 5825 5824 5823 5821 5819
5872 5873 5873 5873 5871 5870 5869 5869 5871 5869 5864 5864 5864 5860 5855 5849 5843 5838 5830 5827 5836 5838 5837 5836 5836 5835 5835 5834 5832 5830 5828 5826 5825 5825 5824 5824 5824 5823 5823 5823 5823 5822 5822 5821 5820 5819 5817 5815 5812
5868 5868 5867 5866 5866 5865 5865 5864 5863 5863 5860 5855 5851 5845 5838 5833 5828 5823 5824 5825 5831 5831 5830 5830 5830 5828 5828 5828 5826 5824 5821 5820 5820 5820 5820 5819 5819 5818 5818 5818 5818 5817 5817 5816 5815 5814 5812 5810 5807
5865 5864 5863 5862 5862 5861 5863 5861 5860 5858 5853 5848 5840 5830 5821 5823 5816 5801 5813 5825 5827 5826 5825 5825 5821 5819 5821 5820 5819 5817 5815 5814 5813 5813 5813 5813 5813 5813 5813 5813 5813 5812 5812 5812 5810 5809 5807 5805 5803
5862 5860 5859 5858 5857 5857 5856 5856 5856 5850 5846 5842 5837 5831 5825 5826 5820 5815 5820 5823 5822 5820 5818 5816 5811 5811 5812 5812 5812 5810 5808 5807 5806 5806 5806 5807 5807 5807 5807 5807 5807 5807 5807 5806 5805 5803 5801 5799 5797
5860 5859 5857 5856 5854 5852 5848 5848 5848 5848 5845 5841 5836 5832 5829 5827 5822 5820 5819 5818 5816 5814 5812 5810 5806 5806 5805 5805 5804 5803 5802 5801 5800 5799 5799 5799 5800 5800 5801 5801 5801 5801 5800 5800 5798 5797 5795 5792 5790
5859 5858 5856 5855 5849 5846 5843 5843 5844 5844 5842 5838 5834 5829 5826 5822 5819 5817 5815 5813 5811 5809 5806 5804 5802 5801 5799 5798 5796 5794 5794 5793 5792 5791 5792 5791 5791 5790 5792 5793 5793 5792 5792 5791 5790 5790 5788 5786 5783
5858 5857 5857 5854 5852 5850 5843 5841 5839 5839 5837 5834 5831 5826 5821 5817 5814 5812 5809 5807 5804 5801 5798 5796 5794 5792 5790 5788 5786 5785 5784 5783 5782 5782 5783 5782 5781 5781 5782 5783 5783 5783 5783 5782 5782 5781 5780 5779 5777
5858 5856 5855 5852 5850 5850 5845 5839 5837 5830 5830 5829 5826 5822 5817 5812 5807 5805 5802 5799 5795 5791 5787 5784 5782 5780 5777 5775 5774 5772 5771 5771 5770 5770 5769 5770 5771 5771 5771 5773 5773 5772 5773 5773 5773 5773 5772 5771 5770
5857 5854 5853 5850 5848 5846 5845 5836 5832 5825 5824 5823 5820 5816 5812 5806 5800 5795 5790 5786 5782 5778 5774 5771 5767 5765 5762 5760 5759 5757 5756 5755 5755 5755 5755 5754 5756 5758 5760 5761 5762 5762 5762 5762 5763 5764 5764 5763 5762
5856 5854 5851 5848 5846 5843 5840 5835 5829 5825 5821 5817 5812 5808 5803 5797 5790 5784 5778 5772 5767 5763 5759 5755 5751 5748 5745 5743 5741 5740 5739 5738 5737 5738 5739 5739 5739 5741 5744 5747 5750 5751 5751 5751 5752 5753 5754 5755 5754
5851 5851 5848 5845 5842 5839 5836 5831 5825 5820 5815 5810 5803 5797 5791 5785 5779 5772 5765 5759 5753 5747 5742 5737 5733 5730 5727 5724 5722 5721 5720 5719 5719 5719 5720 5720 5722 5724 5726 5730 5733 5736 5739 5740 5741 5743 5744 5745 5745